Newburgh, NY

4:07 PM EST on December 11, 2017 (GMT -0500)
Stewart International

Weather History for KSWF - November, 2012

Change the Weather History Date:

Tuesday, November 13, 2012

  Actual Average Record
Temperature  
Mean Temperature 50 °F -  
Max Temperature 62 °F 47 °F 67 °F (1982)
Min Temperature 39 °F 30 °F 15 °F (1981)
Degree Days  
Heating Degree Days 14    
Moisture  
Dew Point 39 °F    
Average Humidity 80    
Maximum Humidity 100    
Minimum Humidity 61    
Precipitation  
Precipitation 0.00 in - - ()
Sea Level Pressure  
Sea Level Pressure 30.32 in    
Wind  
Wind Speed 11 mph (NW)    
Max Wind Speed 25 mph    
Max Gust Speed 43 mph    
Visibility 7 miles    
Events Rain    
Averages and records for this station are not official NWS values.
T = Trace of Precipitation, MM = Missing Value Source: NWS Daily Summary

Daily Weather History Graph

Daily Weather History Graph

Search for Another Location

Airport or City:

Trip Planner

Search our weather history database for the weather conditions in past years. The results will help you decide how hot, cold, wet, or windy it might be!

Date:

Astronomy

Nov. 13, 2012 Rise Set
Actual Time 6:43 AM EST 4:37 PM EST
Civil Twilight 6:13 AM EST 5:07 PM EST
Nautical Twilight 5:40 AM EST 5:40 PM EST
Astronomical Twilight 5:07 AM EST 6:13 PM EST
Moon 6:18 AM EST (11/13) 4:28 PM EST (11/13)
Length of Visible Light 10h 53m
Length of Day
9h 54m
Waning Crescent, 0% of the Moon is Illuminated
Nov 13
Waning Crescent
Nov 13
New
Nov 20
First Quarter
Nov 28
Full
Dec 6
Last Quarter

Hourly Weather History & Observations

Time (EST) Temp. Windchill Dew Point Humidity Pressure Visibility Wind Dir Wind Speed Gust Speed Precip Events Conditions
12:45 AM 62.6 °F - 57.2 °F 82% 30.15 in 6.0 mi SSW 13.8 mph 23.0 mph N/A   Overcast
1:45 AM 62.6 °F - 59.0 °F 88% 30.12 in 5.0 mi SSW 13.8 mph 23.0 mph N/A Rain Light Rain
2:45 AM 51.8 °F - 48.2 °F 88% 30.14 in 5.0 mi WNW 25.3 mph 42.6 mph N/A Rain Light Rain
3:45 AM 50.0 °F - 46.4 °F 87% 30.18 in 10.0 mi WSW 13.8 mph 21.9 mph N/A   Overcast
6:30 AM 46.4 °F 41.9 °F 46.4 °F 100% 30.22 in 2.0 mi WNW 9.2 mph - N/A Rain Light Rain
6:45 AM 46.4 °F 43.5 °F 44.6 °F 93% 30.25 in 2.0 mi WNW 5.8 mph - N/A Rain Light Rain
7:45 AM 44.6 °F 38.8 °F 44.6 °F 100% 30.31 in 2.0 mi WNW 11.5 mph - N/A Rain Light Rain
8:45 AM 44.6 °F 40.2 °F 42.8 °F 93% 30.30 in 2.0 mi WNW 8.1 mph - N/A Rain Light Rain
9:45 AM 42.8 °F 36.6 °F 41.0 °F 93% 30.31 in 3.0 mi NW 11.5 mph - N/A Rain Light Rain
10:45 AM 41.0 °F 36.4 °F 41.0 °F 100% 30.31 in 3.0 mi NNW 6.9 mph - N/A Rain Light Rain
12:45 PM 42.8 °F 40.1 °F 39.2 °F 87% 30.32 in 5.0 mi Variable 4.6 mph - N/A Rain Light Rain
3:45 PM 44.6 °F 40.7 °F 37.4 °F 76% 30.34 in 15.0 mi Variable 6.9 mph - N/A   Overcast
5:45 PM 41.0 °F 38.0 °F 32.0 °F 70% 30.38 in 10.0 mi NNW 4.6 mph - N/A   Mostly Cloudy
6:45 PM 41.0 °F 38.0 °F 32.0 °F 70% 30.40 in 10.0 mi North 4.6 mph - N/A   Overcast
6:59 PM 39.2 °F 33.0 °F 26.6 °F 61% 30.43 in 10.0 mi NW 9.2 mph - N/A   Overcast
7:45 PM 41.0 °F 38.0 °F 30.2 °F 65% 30.42 in 10.0 mi Variable 4.6 mph - N/A   Overcast
8:45 PM 41.0 °F 37.1 °F 30.2 °F 65% 30.44 in 10.0 mi Variable 5.8 mph - N/A   Overcast
9:55 PM 39.2 °F 35.0 °F 28.4 °F 65% 30.46 in 10.0 mi Variable 5.8 mph - N/A   Overcast
10:55 PM 39.2 °F 35.9 °F 28.4 °F 65% 30.46 in 10.0 mi NE 4.6 mph - N/A   Overcast
11:50 PM 39.2 °F 34.2 °F 26.6 °F 61% 30.47 in 15.0 mi NNE 6.9 mph - N/A   Overcast